| time (UTC) | temp C | wind direction | speed KPH | gust KPH | rain 1hr cm | rain 24hr cm | rain mn cm | humidity % | barometer mb |
| 20260507144203 | 7 | 240 | 8.0 | 12.9 | 0.03 | 0.30 | 0.30 | 82 | 1015.1 |
| 20260507143203 | 7 | 240 | 8.0 | 12.9 | 0.03 | 0.30 | 0.30 | 81 | 1015.3 |
| 20260507142703 | 7 | 244 | 8.0 | 14.5 | 0.03 | 0.30 | 0.30 | 80 | 1015.1 |
| 20260507140703 | 6 | 191 | 16.1 | 22.5 | 0.05 | 0.30 | 0.30 | 78 | 1015.0 |
| 20260507135702 | 6 | 198 | 14.5 | 20.9 | 0.08 | 0.28 | 0.28 | 77 | 1014.7 |
| 20260507134203 | 5 | 190 | 8.0 | 11.3 | 0.10 | 0.28 | 0.28 | 80 | 1014.8 |
| 20260507133703 | 5 | 193 | 9.7 | 14.5 | 0.13 | 0.28 | 0.28 | 79 | 1014.8 |
| 20260507132703 | 5 | 185 | 8.0 | 19.3 | 0.18 | 0.28 | 0.28 | 79 | 1014.8 |
| 20260507131703 | 6 | 198 | 9.7 | 16.1 | 0.20 | 0.25 | 0.25 | 77 | 1014.6 |
| 20260507131203 | 7 | 223 | 9.7 | 20.9 | 0.23 | 0.25 | 0.25 | 73 | 1014.4 |
| 20260507130203 | 7 | 327 | 19.3 | 27.4 | 0.23 | 0.23 | 0.23 | 76 | 1013.8 |
| 20260507124703 | 5 | 186 | 11.3 | 16.1 | 0.18 | 0.18 | 0.18 | 78 | 1014.7 |
| 20260507123703 | 5 | 203 | 11.3 | 19.3 | 0.15 | 0.15 | 0.15 | 77 | 1015.1 |
| 20260507123203 | 5 | 198 | 11.3 | 16.1 | 0.13 | 0.13 | 0.13 | 78 | 1015.0 |
| 20260507122203 | 5 | 195 | 3.2 | 4.8 | 0.08 | 0.08 | 0.08 | 75 | 1014.8 |
| 20260507121703 | 5 | 205 | 1.6 | 4.8 | 0.05 | 0.05 | 0.05 | 72 | 1014.6 |
| 20260507113703 | 3 | 165 | 0.0 | 0.0 | 0.00 | 0.00 | 0.00 | 68 | 1014.1 |
| 20260507112703 | 3 | 161 | 0.0 | 0.0 | 0.00 | 0.00 | 0.00 | 70 | 1013.9 |
| 20260507111203 | 2 | 164 | 0.0 | 0.0 | 0.00 | 0.00 | 0.00 | 70 | 1014.1 |
| 20260507110703 | 2 | 164 | 0.0 | 0.0 | 0.00 | 0.00 | 0.00 | 69 | 1014.2 |
| 20260507105703 | 3 | 164 | 0.0 | 0.0 | 0.00 | 0.00 | 0.00 | 68 | 1014.5 |
| 20260507104704 | 3 | 165 | 0.0 | 0.0 | 0.00 | 0.00 | 0.00 | 67 | 1014.8 |
| 20260507104203 | 3 | 165 | 0.0 | 0.0 | 0.00 | 0.00 | 0.00 | 66 | 1014.8 |
| 20260507103703 | 3 | 166 | 0.0 | 0.0 | 0.00 | 0.00 | 0.00 | 65 | 1014.9 |
| 20260507102703 | 4 | 165 | 3.2 | 4.8 | 0.00 | 0.00 | 0.00 | 65 | 1015.0 |
| 20260507102203 | 4 | 165 | 0.0 | 1.6 | 0.00 | 0.00 | 0.00 | 64 | 1015.1 |
| 20260507100703 | 4 | 192 | 0.0 | 3.2 | 0.00 | 0.00 | 0.00 | 63 | 1015.4 |
| 20260507095203 | 5 | 191 | 3.2 | 4.8 | 0.00 | 0.00 | 0.00 | 61 | 1015.7 |
| 20260507094703 | 5 | 187 | 3.2 | 4.8 | 0.00 | 0.00 | 0.00 | 63 | 1015.8 |
| 20260507093203 | 5 | 193 | 4.8 | 11.3 | 0.00 | 0.00 | 0.00 | 58 | 1015.7 |
| 20260507092203 | 5 | 191 | 8.0 | 9.7 | 0.00 | 0.00 | 0.00 | 60 | 1015.8 |
| 20260507091203 | 5 | 201 | 4.8 | 8.0 | 0.00 | 0.00 | 0.00 | 61 | 1015.9 |
| 20260507090703 | 5 | 193 | 8.0 | 11.3 | 0.00 | 0.00 | 0.00 | 60 | 1015.8 |
| 20260507085704 | 5 | 189 | 4.8 | 9.7 | 0.00 | 0.00 | 0.00 | 61 | 1015.9 |
| 20260507085203 | 5 | 187 | 4.8 | 8.0 | 0.00 | 0.00 | 0.00 | 61 | 1015.9 |
| 20260507083703 | 5 | 191 | 4.8 | 4.8 | 0.00 | 0.00 | 0.00 | 62 | 1016.0 |
| 20260507083203 | 5 | 188 | 4.8 | 9.7 | 0.00 | 0.00 | 0.00 | 61 | 1016.0 |
| 20260507081703 | 5 | 180 | 6.4 | 9.7 | 0.00 | 0.00 | 0.00 | 61 | 1016.2 |
| 20260507081203 | 5 | 185 | 4.8 | 11.3 | 0.00 | 0.00 | 0.00 | 61 | 1016.2 |
| 20260507080703 | 5 | 189 | 4.8 | 11.3 | 0.00 | 0.00 | 0.00 | 62 | 1016.2 |
| 20260507080204 | 4 | 184 | 4.8 | 9.7 | 0.00 | 0.00 | 0.00 | 62 | 1016.2 |
| 20260507075704 | 5 | 186 | 4.8 | 8.0 | 0.00 | 0.00 | 0.00 | 61 | 1016.2 |
| 20260507072703 | 5 | 161 | 4.8 | 4.8 | 0.00 | 0.00 | 0.00 | 55 | 1016.3 |
| 20260507072203 | 5 | 161 | 3.2 | 4.8 | 0.00 | 0.00 | 0.00 | 56 | 1016.4 |
| 20260507071703 | 5 | 162 | 1.6 | 4.8 | 0.00 | 0.00 | 0.00 | 56 | 1016.4 |
| 20260507070204 | 3 | 159 | 0.0 | 0.0 | 0.00 | 0.00 | 0.00 | 62 | 1016.7 |
| 20260507065704 | 3 | 159 | 0.0 | 0.0 | 0.00 | 0.00 | 0.00 | 60 | 1016.7 |
| 20260507064203 | 4 | 159 | 0.0 | 0.0 | 0.00 | 0.00 | 0.00 | 56 | 1016.8 |
| 20260507063704 | 4 | 159 | 0.0 | 3.2 | 0.00 | 0.00 | 0.00 | 57 | 1016.8 |
| 20260507063203 | 5 | 159 | 0.0 | 3.2 | 0.00 | 0.00 | 0.00 | 57 | 1016.8 |
| 20260507062703 | 5 | 161 | 1.6 | 4.8 | 0.00 | 0.00 | 0.00 | 56 | 1016.9 |
| 20260507061203 | 4 | 169 | 3.2 | 8.0 | 0.00 | 0.00 | 0.00 | 54 | 1016.9 |
| 20260507060203 | 5 | 169 | 3.2 | 4.8 | 0.00 | 0.00 | 0.00 | 55 | 1017.0 |
| 20260507055703 | 5 | 169 | 4.8 | 4.8 | 0.00 | 0.00 | 0.00 | 54 | 1017.0 |
| 20260507055204 | 4 | 167 | 4.8 | 4.8 | 0.00 | 0.00 | 0.00 | 54 | 1017.1 |
| 20260507054703 | 4 | 185 | 0.0 | 1.6 | 0.00 | 0.00 | 0.00 | 55 | 1017.1 |
| 20260507054203 | 5 | 186 | 1.6 | 3.2 | 0.00 | 0.00 | 0.00 | 53 | 1017.1 |
| 20260507053703 | 5 | 187 | 0.0 | 3.2 | 0.00 | 0.00 | 0.00 | 53 | 1017.1 |
| 20260507053203 | 5 | 188 | 0.0 | 0.0 | 0.00 | 0.00 | 0.00 | 53 | 1017.1 |
| 20260507052203 | 5 | 188 | 0.0 | 3.2 | 0.00 | 0.00 | 0.00 | 51 | 1017.2 |
| 20260507051204 | 5 | 193 | 3.2 | 3.2 | 0.00 | 0.00 | 0.00 | 53 | 1017.3 |
| 20260507050703 | 5 | 216 | 0.0 | 1.6 | 0.00 | 0.00 | 0.00 | 54 | 1017.2 |
| 20260507050203 | 5 | 219 | 0.0 | 0.0 | 0.00 | 0.00 | 0.00 | 54 | 1017.3 |
| 20260507045703 | 5 | 219 | 0.0 | 0.0 | 0.00 | 0.00 | 0.00 | 53 | 1017.3 |
| 20260507044704 | 5 | 219 | 1.6 | 3.2 | 0.00 | 0.00 | 0.00 | 52 | 1017.3 |
| 20260507042704 | 5 | 275 | 0.0 | 0.0 | 0.00 | 0.00 | 0.00 | 50 | 1017.5 |
| 20260507042203 | 5 | 275 | 0.0 | 0.0 | 0.00 | 0.00 | 0.00 | 50 | 1017.5 |
| 20260507041203 | 6 | 275 | 0.0 | 0.0 | 0.00 | 0.00 | 0.00 | 50 | 1017.5 |
| 20260507035704 | 6 | 275 | 0.0 | 0.0 | 0.00 | 0.00 | 0.00 | 49 | 1017.6 |
| 20260507034703 | 6 | 275 | 0.0 | 0.0 | 0.00 | 0.00 | 0.00 | 49 | 1017.7 |
| 20260507033704 | 6 | 275 | 0.0 | 0.0 | 0.00 | 0.00 | 0.00 | 46 | 1017.8 |
| 20260507033203 | 6 | 275 | 0.0 | 0.0 | 0.00 | 0.00 | 0.00 | 45 | 1017.7 |
| 20260507032203 | 7 | 275 | 0.0 | 0.0 | 0.00 | 0.00 | 0.00 | 45 | 1017.8 |
| 20260507031704 | 7 | 275 | 0.0 | 0.0 | 0.00 | 0.00 | 0.00 | 44 | 1017.8 |
| 20260507031204 | 7 | 275 | 0.0 | 0.0 | 0.00 | 0.00 | 0.00 | 45 | 1017.8 |
| 20260507030203 | 7 | 275 | 0.0 | 0.0 | 0.00 | 0.00 | 0.00 | 45 | 1017.8 |
| 20260507025703 | 7 | 275 | 0.0 | 0.0 | 0.00 | 0.00 | 0.00 | 45 | 1017.7 |
| 20260507024203 | 7 | 275 | 0.0 | 0.0 | 0.00 | 0.00 | 0.00 | 43 | 1017.6 |
| 20260507023703 | 7 | 275 | 0.0 | 0.0 | 0.00 | 0.00 | 0.00 | 43 | 1017.6 |
| 20260507022704 | 7 | 275 | 0.0 | 0.0 | 0.00 | 0.00 | 0.00 | 44 | 1017.6 |
| 20260507022203 | 7 | 275 | 0.0 | 0.0 | 0.00 | 0.00 | 0.00 | 44 | 1017.6 |
| 20260507021203 | 8 | 275 | 0.0 | 0.0 | 0.00 | 0.00 | 0.00 | 42 | 1017.6 |
| 20260507020703 | 8 | 275 | 0.0 | 0.0 | 0.00 | 0.00 | 0.00 | 42 | 1017.6 |
| 20260507013703 | 9 | 298 | 0.0 | 4.8 | 0.00 | 0.00 | 0.00 | 40 | 1017.4 |
| 20260507013204 | 9 | 297 | 1.6 | 1.6 | 0.00 | 0.00 | 0.00 | 41 | 1017.4 |
| 20260507012704 | 10 | 297 | 1.6 | 3.2 | 0.00 | 0.00 | 0.00 | 39 | 1017.4 |
| 20260507012204 | 10 | 297 | 0.0 | 1.6 | 0.00 | 0.00 | 0.00 | 39 | 1017.5 |
| 20260507011703 | 10 | 297 | 0.0 | 3.2 | 0.00 | 0.00 | 0.00 | 38 | 1017.5 |
| 20260507011203 | 10 | 297 | 1.6 | 4.8 | 0.00 | 0.00 | 0.00 | 38 | 1017.4 |
| 20260507005704 | 10 | 282 | 3.2 | 9.7 | 0.00 | 0.00 | 0.00 | 38 | 1017.5 |
| 20260507005203 | 10 | 277 | 4.8 | 14.5 | 0.00 | 0.00 | 0.00 | 38 | 1017.6 |
| 20260507004703 | 11 | 289 | 4.8 | 11.3 | 0.00 | 0.00 | 0.00 | 37 | 1017.6 |
| 20260507002703 | 11 | 288 | 8.0 | 11.3 | 0.00 | 0.00 | 0.00 | 36 | 1017.4 |
| 20260507002204 | 11 | 290 | 8.0 | 16.1 | 0.00 | 0.00 | 0.00 | 36 | 1017.4 |
| 20260507001204 | 11 | 277 | 11.3 | 24.1 | 0.00 | 0.00 | 0.00 | 35 | 1017.4 |
| 20260507000704 | 12 | 276 | 14.5 | 22.5 | 0.00 | 0.00 | 0.00 | 34 | 1017.4 |
| 20260507000205 | 12 | 290 | 9.7 | 16.1 | 0.00 | 0.00 | 0.00 | 34 | 1017.4 |
| 20260506234703 | 12 | 292 | 6.4 | 14.5 | 0.00 | 0.00 | 0.00 | 36 | 1017.6 |
| 20260506234203 | 12 | 301 | 9.7 | 14.5 | 0.00 | 0.00 | 0.00 | 36 | 1017.5 |
| 20260506232204 | 12 | 271 | 9.7 | 19.3 | 0.00 | 0.00 | 0.00 | 35 | 1017.7 |
| 20260506231704 | 12 | 284 | 16.1 | 22.5 | 0.00 | 0.00 | 0.00 | 34 | 1017.6 |
| 20260506231204 | 12 | 260 | 16.1 | 22.5 | 0.00 | 0.00 | 0.00 | 36 | 1017.6 |
| 20260506230704 | 12 | 272 | 19.3 | 24.1 | 0.00 | 0.00 | 0.00 | 35 | 1017.7 |
| 20260506230203 | 12 | 283 | 11.3 | 19.3 | 0.00 | 0.00 | 0.00 | 35 | 1017.7 |
| 20260506224204 | 12 | 317 | 16.1 | 25.7 | 0.00 | 0.00 | 0.00 | 35 | 1017.7 |
| 20260506223203 | 11 | 282 | 14.5 | 19.3 | 0.00 | 0.00 | 0.00 | 35 | 1017.8 |
| 20260506222204 | 12 | 271 | 14.5 | 24.1 | 0.00 | 0.00 | 0.00 | 37 | 1017.8 |
| 20260506221703 | 12 | 297 | 16.1 | 25.7 | 0.00 | 0.00 | 0.00 | 34 | 1017.9 |
| 20260506221204 | 12 | 296 | 20.9 | 32.2 | 0.00 | 0.00 | 0.00 | 34 | 1017.7 |
| 20260506220704 | 13 | 270 | 20.9 | 29.0 | 0.00 | 0.00 | 0.00 | 35 | 1017.8 |
| 20260506220203 | 12 | 304 | 14.5 | 25.7 | 0.00 | 0.00 | 0.00 | 36 | 1017.8 |
| 20260506214704 | 12 | 277 | 19.3 | 32.2 | 0.00 | 0.00 | 0.00 | 35 | 1017.8 |
| 20260506214203 | 13 | 269 | 19.3 | 25.7 | 0.00 | 0.00 | 0.00 | 35 | 1017.8 |
| 20260506213704 | 13 | 310 | 14.5 | 32.2 | 0.00 | 0.00 | 0.00 | 35 | 1017.8 |
| 20260506213204 | 11 | 265 | 14.5 | 22.5 | 0.00 | 0.00 | 0.00 | 37 | 1017.9 |
| 20260506212203 | 12 | 289 | 16.1 | 32.2 | 0.00 | 0.00 | 0.00 | 38 | 1018.0 |
| 20260506210704 | 11 | 294 | 14.5 | 24.1 | 0.00 | 0.00 | 0.00 | 37 | 1017.9 |
| 20260506205703 | 13 | 270 | 20.9 | 35.4 | 0.00 | 0.00 | 0.00 | 36 | 1017.9 |
| 20260506204204 | 12 | 272 | 11.3 | 32.2 | 0.00 | 0.00 | 0.00 | 37 | 1018.2 |
| 20260506203704 | 12 | 285 | 17.7 | 27.4 | 0.00 | 0.00 | 0.00 | 37 | 1018.2 |
| 20260506201204 | 11 | 277 | 12.9 | 22.5 | 0.00 | 0.00 | 0.00 | 37 | 1018.4 |
| 20260506200704 | 11 | 295 | 8.0 | 14.5 | 0.00 | 0.00 | 0.00 | 40 | 1018.5 |
| 20260506200203 | 11 | 291 | 19.3 | 25.7 | 0.00 | 0.00 | 0.00 | 37 | 1018.6 |
| 20260506195203 | 11 | 276 | 19.3 | 29.0 | 0.00 | 0.00 | 0.00 | 38 | 1018.7 |
| 20260506194704 | 11 | 268 | 20.9 | 29.0 | 0.00 | 0.00 | 0.00 | 41 | 1018.7 |
| 20260506194204 | 12 | 268 | 16.1 | 22.5 | 0.00 | 0.00 | 0.00 | 39 | 1018.8 |
| 20260506193704 | 11 | 291 | 14.5 | 20.9 | 0.00 | 0.00 | 0.00 | 41 | 1018.7 |
| 20260506192703 | 11 | 284 | 12.9 | 22.5 | 0.00 | 0.00 | 0.00 | 44 | 1018.9 |
| 20260506191203 | 10 | 309 | 14.5 | 22.5 | 0.00 | 0.00 | 0.00 | 40 | 1018.9 |
| 20260506190204 | 11 | 262 | 14.5 | 29.0 | 0.00 | 0.00 | 0.00 | 39 | 1019.1 |
| 20260506183704 | 11 | 288 | 19.3 | 29.0 | 0.00 | 0.00 | 0.00 | 42 | 1019.0 |
| 20260506183203 | 11 | 286 | 16.1 | 24.1 | 0.00 | 0.00 | 0.00 | 40 | 1019.1 |
| 20260506180704 | 11 | 301 | 17.7 | 27.4 | 0.00 | 0.00 | 0.00 | 41 | 1019.1 |
| 20260506175203 | 10 | 269 | 11.3 | 20.9 | 0.00 | 0.00 | 0.00 | 44 | 1019.2 |
| 20260506174704 | 10 | 300 | 17.7 | 25.7 | 0.00 | 0.00 | 0.00 | 42 | 1019.2 |
| 20260506174204 | 10 | 286 | 14.5 | 20.9 | 0.00 | 0.00 | 0.00 | 44 | 1019.2 |
| 20260506171703 | 10 | 265 | 16.1 | 25.7 | 0.00 | 0.00 | 0.00 | 42 | 1019.3 |
| 20260506171204 | 10 | 291 | 9.7 | 24.1 | 0.00 | 0.00 | 0.00 | 42 | 1019.5 |
| 20260506170703 | 10 | 280 | 16.1 | 22.5 | 0.00 | 0.00 | 0.00 | 43 | 1019.5 |
| 20260506170204 | 10 | 301 | 14.5 | 19.3 | 0.00 | 0.00 | 0.00 | 43 | 1019.5 |
| 20260506165203 | 9 | 288 | 20.9 | 25.7 | 0.00 | 0.00 | 0.00 | 41 | 1019.6 |
| 20260506164204 | 10 | 264 | 16.1 | 25.7 | 0.00 | 0.00 | 0.00 | 43 | 1019.5 |
| 20260506163704 | 10 | 288 | 14.5 | 22.5 | 0.00 | 0.00 | 0.00 | 45 | 1019.5 |
| 20260506163203 | 9 | 284 | 16.1 | 24.1 | 0.00 | 0.00 | 0.00 | 42 | 1019.5 |
| 20260506162704 | 9 | 290 | 16.1 | 29.0 | 0.00 | 0.00 | 0.00 | 45 | 1019.4 |
| 20260506161203 | 10 | 303 | 8.0 | 16.1 | 0.00 | 0.00 | 0.00 | 45 | 1019.2 |
| 20260506155202 | 10 | 300 | 8.0 | 25.7 | 0.00 | 0.00 | 0.00 | 43 | 1019.2 |
| 20260506154702 | 10 | 298 | 8.0 | 16.1 | 0.00 | 0.00 | 0.00 | 42 | 1019.3 |
| 20260506153202 | 9 | 306 | 12.9 | 19.3 | 0.00 | 0.00 | 0.00 | 47 | 1019.1 |
| 20260506152702 | 9 | 322 | 11.3 | 16.1 | 0.00 | 0.00 | 0.00 | 44 | 1019.2 |
| 20260506150202 | 9 | 317 | 8.0 | 16.1 | 0.00 | 0.00 | 0.00 | 46 | 1019.0 |
| 20260506145202 | 8 | 352 | 6.4 | 16.1 | 0.00 | 0.00 | 0.00 | 50 | 1019.1 |